Concord, NC

1:15 AM EDT on May 22, 2018 (GMT -0400)
Concord Regional

Weather History for KJQF - July, 2013

Change the Weather History Date:

Sunday, July 21, 2013

  Actual Average (KCLT) Record (KCLT)
Temperature  
Mean Temperature 79 °F -  
Max Temperature 87 °F 90 °F 103 °F (1986)
Min Temperature 71 °F 70 °F 57 °F (1890)
Cooling Degree Days 14    
Growing Degree Days 29 (Base 50)    
Moisture  
Dew Point 70 °F    
Average Humidity 87    
Maximum Humidity 94    
Minimum Humidity 55    
Precipitation  
Precipitation 0.00 in - - ()
Sea Level Pressure  
Sea Level Pressure 30.03 in    
Wind  
Wind Speed 1 mph (SW)    
Max Wind Speed 14 mph    
Max Gust Speed 20 mph    
Visibility 9 miles    
Events Rain , Thunderstorm    
Averages and records for this station are not official NWS values.
T = Trace of Precipitation, MM = Missing Value Source: NWS Daily Summary

Daily Weather History Graph

Daily Weather History Graph

Search for Another Location

Airport or City:

Astronomy

Jul. 21, 2013 Rise Set
Actual Time 6:23 AM EDT 8:34 PM EDT
Civil Twilight 5:54 AM EDT 9:03 PM EDT
Nautical Twilight 5:19 AM EDT 9:38 PM EDT
Astronomical Twilight 4:41 AM EDT 10:16 PM EDT
Moon 7:33 PM EDT (7/21) 5:06 AM EDT (7/21)
Length of Visible Light 15h 08m
Length of Day
14h 11m
Waxing Gibbous, 98% of the Moon is Illuminated
Jul 21
Waxing Gibbous
Jul 22
Full
Jul 29
Last Quarter
Aug 6
New
Aug 14
First Quarter

Hourly Weather History & Observations

Time (EDT) Temp. Heat Index Dew Point Humidity Pressure Visibility Wind Dir Wind Speed Gust Speed Precip Events Conditions
12:15 AM 71.6 °F - 69.8 °F 94% 30.05 in 4.0 mi Calm Calm - N/A   Clear
12:35 AM 71.6 °F - 69.8 °F 94% 30.05 in 4.0 mi Calm Calm - N/A   Clear
12:55 AM 71.6 °F - 69.8 °F 94% 30.05 in 5.0 mi Calm Calm - N/A   Clear
1:15 AM 71.6 °F - 69.8 °F 94% 30.04 in 4.0 mi Calm Calm - N/A   Clear
1:35 AM 71.6 °F - 69.8 °F 94% 30.04 in 7.0 mi Calm Calm - N/A   Clear
1:55 AM 71.6 °F - 69.8 °F 94% 30.03 in 10.0 mi Calm Calm - N/A   Clear
2:15 AM 71.6 °F - 69.8 °F 94% 30.03 in 10.0 mi Calm Calm - N/A   Clear
2:35 AM 71.6 °F - 69.8 °F 94% 30.02 in 10.0 mi Calm Calm - N/A   Clear
2:55 AM 71.6 °F - 69.8 °F 94% 30.01 in 10.0 mi Calm Calm - N/A   Clear
3:15 AM 71.6 °F - 69.8 °F 94% 30.02 in 10.0 mi Calm Calm - N/A   Scattered Clouds
3:35 AM 71.6 °F - 69.8 °F 94% 30.01 in 10.0 mi Calm Calm - N/A   Mostly Cloudy
3:55 AM 73.4 °F - 69.8 °F 88% 30.02 in 10.0 mi South 3.5 mph - N/A   Overcast
4:15 AM 73.4 °F - 71.6 °F 94% 30.02 in 10.0 mi SSW 3.5 mph - N/A   Overcast
4:35 AM 73.4 °F - 71.6 °F 94% 30.02 in 10.0 mi SW 4.6 mph - N/A   Overcast
4:55 AM 73.4 °F - 69.8 °F 88% 30.01 in 10.0 mi SW 6.9 mph - N/A   Mostly Cloudy
5:15 AM 73.4 °F - 71.6 °F 94% 30.01 in 10.0 mi SW 3.5 mph - N/A   Overcast
5:35 AM 73.4 °F - 69.8 °F 88% 30.00 in 10.0 mi Calm Calm - N/A   Mostly Cloudy
5:55 AM 73.4 °F - 69.8 °F 88% 30.01 in 10.0 mi WSW 3.5 mph - N/A   Mostly Cloudy
6:15 AM 73.4 °F - 69.8 °F 88% 30.01 in 10.0 mi Calm Calm - N/A   Mostly Cloudy
6:55 AM 73.4 °F - 69.8 °F 88% 30.02 in 10.0 mi Calm Calm - N/A   Overcast
7:35 AM 73.4 °F - 69.8 °F 88% 30.03 in 10.0 mi Calm Calm - N/A   Overcast
7:55 AM 75.2 °F - 71.6 °F 89% 30.04 in 10.0 mi SSW 3.5 mph - N/A   Overcast
8:55 AM 77.0 °F - 71.6 °F 83% 30.06 in 10.0 mi West 4.6 mph - N/A   Overcast
9:55 AM 78.8 °F - 71.6 °F 78% 30.07 in 10.0 mi WSW 4.6 mph - N/A   Overcast
10:55 AM 80.6 °F 84.6 °F 71.6 °F 74% 30.07 in 10.0 mi WSW 4.6 mph - N/A   Overcast
11:55 AM 82.4 °F 87.2 °F 71.6 °F 70% 30.07 in 10.0 mi Calm Calm - N/A   Mostly Cloudy
12:55 PM 82.4 °F 87.2 °F 71.6 °F 70% 30.06 in 10.0 mi Calm Calm - N/A   Mostly Cloudy
1:55 PM 84.2 °F 88.4 °F 69.8 °F 62% 30.02 in 10.0 mi Calm Calm - N/A   Scattered Clouds
2:55 PM 86.0 °F 90.4 °F 69.8 °F 58% 30.00 in 10.0 mi Calm Calm - N/A   Scattered Clouds
3:55 PM 87.8 °F 92.6 °F 69.8 °F 55% 29.98 in 10.0 mi Calm Calm - N/A   Scattered Clouds
4:55 PM 87.8 °F 93.8 °F 71.6 °F 58% 29.97 in 10.0 mi Calm Calm - N/A   Clear
5:55 PM 78.8 °F - 71.6 °F 78% 29.98 in 7.0 mi North 13.8 mph 19.6 mph N/A Rain , Thunderstorm Thunderstorms and Rain
6:55 PM 73.4 °F - 69.8 °F 88% 30.02 in 7.0 mi Calm Calm - N/A Rain , Thunderstorm Thunderstorms and Rain
8:55 PM 71.6 °F - 69.8 °F 94% 30.00 in 8.0 mi Calm Calm - N/A   Overcast
9:15 PM 71.6 °F - 69.8 °F 94% 30.02 in 10.0 mi Calm Calm - N/A Rain Light Rain
9:55 PM 71.6 °F - 69.8 °F 94% 30.03 in 7.0 mi Calm Calm - N/A   Clear
10:15 PM 71.6 °F - 69.8 °F 94% 30.03 in 10.0 mi Calm Calm - N/A Rain Light Rain
10:35 PM 71.6 °F - 69.8 °F 94% 30.03 in 5.0 mi Calm Calm - N/A Rain Light Rain
10:55 PM 71.6 °F - 69.8 °F 94% 30.03 in 10.0 mi Calm Calm - N/A Rain Light Rain
11:15 PM 71.6 °F - 69.8 °F 94% 30.03 in 10.0 mi Calm Calm - N/A Rain Light Rain
11:35 PM 71.6 °F - 69.8 °F 94% 30.04 in 10.0 mi WSW 3.5 mph - N/A   Light Drizzle
11:55 PM 71.6 °F - 69.8 °F 94% 30.05 in 10.0 mi Calm Calm - N/A Rain Light Rain